Tracking 22094 objects as of 17-Jan-2021
HD Live streaming from Space Station
objects crossing your sky now

STARLINK-1709

Track STARLINK-1709 now!
10-day predictions
STARLINK-1709 is classified as:


NORAD ID: 46561
Int'l Code: 2020-070AF
Perigee: 552.9 km
Apogee: 555.7 km
Inclination: 53.1 °
Period: 95.6 minutes
Semi major axis: 6925 km
RCS: Unknown
Launch date: October 6, 2020
Source: United States (US)
Launch site: AIR FORCE EASTERN TEST RANGE (AFETR)
aabbcc
Your satellite tracking list
Your tracking list is empty




NASA's NSSDC Master Catalog

Two Line Element Set (TLE):
1 46561U 20070AF  21016.91667824 -.00021957  00000-0 -14593-2 0  9994
2 46561  53.0563 311.2364 0002047  70.7045 140.1243 15.06408328  1757
Source of the keplerian elements: AFSPC